Terminal Aerodrome Forecast
Issued by NWS Duluth, MN

Home | Current Version | Previous Version | Text Only | Print | Product List | Glossary On
Versions: 1 2 3 4 5 6 7 8 9 10 11 12 13 14 15 16 17 18 19 20 21 22 23 24
000
FTUS43 KDLH 162300
TAFINL
TAF
KINL 162335Z 1700/1724 36010KT P6SM FEW019 OVC045
     FM170400 35006KT 4SM -SN OVC015
     FM171000 36005KT P6SM OVC015
     FM171900 01005KT P6SM SCT015 BKN250=

USA.gov is the U.S. government's official web portal to all federal, state and local government web resources and services.